Weather in Pedro Juan Caballero

Paraguay     22°33′48″S   55°43′12″W
temp.,
°C
wind,
m/s
gust,
m/s
humid.,
%
clouds,
%
prec.,
mm/h
press.,
hPa
HPBL,
m
17 may, mon
mon1723:00+19ese24678 0.0 101887
02:00+17e34730 0.0 101765
05:00+16e227842 0.0 101821
08:00+22e2356100 0.0 1019228
11:00+25e124520 0.0 1019669
14:00+29sw243583 0.0 10152430
17:00+25s374736 0.0 1015297
20:00+19sse23710 0.0 101736
18 may, tue
tue1823:00+18sse23710 0.0 101846
02:00+16se24740 0.0 101773
05:00+15ese23770 0.0 101757
08:00+20e34560 0.0 1018268
11:00+29ese12355 0.0 10171251
14:00+30wsw34316 0.0 10132634
17:00+24s344413 0.0 101277
20:00+20ese23605 0.0 101534
19 may, wed
wed1923:00+18e36620 0.0 101594
02:00+17ene35635 0.0 101492
05:00+16ne376435 0.0 1014124
08:00+22ne484663 0.0 1015243
11:00+29nne463066 0.0 10141242
14:00+32n45227 0.0 10103241
17:00+26nne223294 0.0 101012
20:00+22nne223814 0.0 101116
20 may, thu
thu2023:00+21ne35425 0.0 101263
02:00+19ene410485 0.0 1012167
05:00+18ne411518 0.0 1012209
08:00+23ne51139100 0.0 1014298
11:00+29nne582713 0.0 1012929
14:00+32nnw57225 0.0 10082873
17:00+28n493133 0.0 1009300
20:00+24nne353845 0.0 101067
21 may, fri
fri2123:00+23ne4104367 0.0 1010170
02:00+23nne3104584 0.0 1008191
05:00+21n3106168 0.5 1008172
08:00+22nnw3116893 1.3 1010309
11:00+31nw7123475 0.1 10091963
14:00+31nw6123282 0.1 10062890
17:00+29nw51137100 0.0 10061244
20:00+22w227244 0.5 100924